Find Starlink 2475

NORAD ID: 48133 Int'l Des: 2021-027 Owner: SPXS Country: US Constellation: starlink operational
LEOCIRCULAR

Live Position

Loading 3D Globe...

About Starlink 2475

Description loading...

Upcoming Passes

Passes for default location (London). Set your location on the main map for personalized predictions.

Altitude History

Loading altitude history...

Two-Line Element Set

1 48133U 21027AT 26110.58336806 .00041069 00000-0 13283-2 0 9999
2 48133 53.1604 330.7011 0001277 84.7670 148.0760 15.31692073 5585
Epoch: Apr 20, 2026 • Age: 5 hours

Current Status

Altitude 471.8 km
Velocity 7.63 km/s
Sub-Earth Point 30.02°N, 145.04°W
Launch Date Apr 7, 2021
Age 5 years
Type internet

Technical Details

Classification Payload
Mass 260.00 kg
Dry Mass 248.00 kg
Total Mass 260.00 kg
Length 0.20 m
Diameter 2.80 m
Span 9.00 m
Shape Box + pan
Manufacturer SPXS
Bus Type Starlink
Phase Status In Orbit
Owner/State SPXS/US

Most Searched